[[{"header":{"parameterUnit":"m.s-1","parameterCategory":1,"la1":30.2992,"la2":30.254,"lo1":-89.0895,"lo2":-89.0443,"dy":0.0025,"dx":0.0025,"nx":19,"ny":19,"refTime":"2026-04-07T03:00:00:Z","depth":0,"parameterNumber":2,"parameterNumberName":"U-component_of_WINDS"},"data":[0,0,0,-8.8886,-8.8891,-8.9111,-8.9111,-8.9451,-8.9454,0,0,0,0,0,0,0,0,0,0,0,-8.8859,-8.8862,-8.8885,-8.8892,-8.9111,-8.9111,-8.945,-8.9454,0,0,0,0,0,0,0,0,0,0,0,-8.8857,-8.8862,-8.8866,-8.8893,-8.9111,-8.9111,-8.9449,-8.9262,0,0,0,0,0,0,0,0,0,0,-8.9039,-8.9052,-8.8861,-8.8866,-8.8895,-8.9111,-8.9111,-8.9252,-8.9274,-8.9377,0,-8.9481,0,-8.9474,-8.9481,-8.9482,0,0,0,-8.8863,-8.9034,-8.9059,-8.8867,-8.8897,-8.911,-8.9004,-8.9264,-8.9288,-8.9407,-8.9485,-8.9496,-8.9479,-8.9483,-8.9485,-9.0179,-9.0184,0,0,-8.8851,-8.8919,-8.9042,-8.9077,-8.9049,-8.8997,-8.9011,-8.9278,-8.9367,-8.9486,-8.9503,-8.9485,-8.9486,-8.9489,-9.0175,-9.0181,0,0,0,-8.8836,-8.8912,-8.8928,-8.9065,-8.91,-8.9004,-8.902,-8.9355,-8.9355,-8.9506,-8.9489,-8.9488,-8.9493,-9.017,-9.0177,-9.0469,0,0,0,-8.8827,-8.8902,-8.8924,-8.8968,-8.9096,-8.9231,-8.9094,-8.9337,-8.9365,-8.9487,-8.9489,-8.9497,-9.0165,-9.0174,-9.045,-9.0596,0,0,0,-8.8832,-8.8902,-8.8947,-8.8971,-8.9068,-8.9225,-8.9239,-8.9341,-8.9356,-8.9483,-8.9498,-9.0161,-9.0172,-9.0433,-9.0567,-9.0797,0,0,0,-8.8855,-8.9204,-8.8953,-8.9335,-8.9067,-8.9405,-8.9237,-8.9485,-8.9628,-8.949,-9.0166,-9.0176,-9.0428,-9.055,-9.0779,-9.1002,-9.1101,0,0,-8.9332,-8.9264,-8.9483,-8.9264,-8.9665,-8.9366,-8.9808,-8.9875,-8.9825,-9.0064,-9.0079,-9.0456,-9.0566,-9.0793,-9.1636,-9.1715,0,0,0,-8.9657,-8.9815,-8.9906,-9.0047,-9.0107,-9.0169,-9.0162,-9.0186,-9.0385,-8.9962,-9.0599,-9.0662,-9.0793,-9.0896,-9.0964,-9.1071,-9.0227,-9.0226,-9.0225,-9.0429,-9.0346,-9.0702,-9.0646,-9.0784,-9.0772,-9.0875,-9.0905,-9.0782,-9.0934,-9.1004,-9.1526,-9.1649,-9.1699,-9.1812,-9.1115,-9.1116,-9.1117,-9.1118,-9.1119,-9.1329,-9.1156,-9.1439,-9.1349,-9.1585,-9.1587,-9.1491,-9.1697,-9.1466,-9.1577,-9.1332,-9.1789,-9.1883,-9.1139,-9.1136,-9.1133,-9.1131,-9.1129,-9.1614,-9.17,-9.1725,-9.1917,-9.2075,-9.2004,-9.221,-9.212,-9.2036,-9.2147,-9.221,-9.2205,-9.2187,-9.2183,-9.2185,-9.2187,-9.2188,-9.219,-9.2191,-9.2119,-9.2136,-9.2321,-9.2414,-9.249,-9.258,-9.257,-9.2643,-9.27,-9.2618,-9.2618,-9.2479,-9.185,-9.1693,-9.2218,-9.2213,-9.221,-9.2207,-9.2205,-9.2849,-9.2669,-9.2955,-9.3033,-9.3131,-9.3293,-9.3175,-9.3331,-9.3377,-9.3481,-9.3318,-9.2867,-9.279,-9.2736,-9.2605,-9.3335,-9.3335,-9.3335,-9.3336,-9.3266,-9.3218,-9.3489,-9.3618,-9.3734,-9.3657,-9.398,-9.3975,-9.3942,-9.3965,-9.3846,-9.3665,-9.3614,-9.3567,-9.3495,-9.3371,-9.428,-9.4281,-9.4282,-9.3709,-9.3668,-9.3962,-9.3927,-9.3998,-9.406,-9.436,-9.4514,-9.4438,-9.4318,-9.3981,-9.3941,-9.3648,-9.3557,-9.343,-9.332,-9.3092,0,0]},{"header":{"parameterUnit":"m.s-1","parameterCategory":1,"la1":30.2992,"la2":30.254,"lo1":-89.0895,"lo2":-89.0443,"dy":0.0025,"dx":0.0025,"nx":19,"ny":19,"refTime":"2026-04-07T03:00:00:Z","depth":0,"parameterNumber":3,"parameterNumberName":"V-component_of_WINDS"},"data":[0,0,0,-2.0016,-2.0017,-2.0074,-2.0075,-2.014,-2.014,0,0,0,0,0,0,0,0,0,0,0,-1.9995,-1.9996,-2.0016,-2.0017,-2.0074,-2.0075,-2.014,-2.014,0,0,0,0,0,0,0,0,0,0,0,-1.9995,-1.9996,-1.9996,-2.0017,-2.0074,-2.0075,-2.014,-2.0099,0,0,0,0,0,0,0,0,0,0,-2.0045,-2.0023,-1.9996,-1.9996,-2.0018,-2.0074,-2.0075,-2.0097,-2.0102,-2.0111,0,-2.0119,0,-2.0131,-2.0144,-2.0145,0,0,0,-2.002,-2.0019,-2.0038,-1.9996,-2.0018,-2.0074,-2.0049,-2.01,-2.0105,-2.0117,-2.012,-2.0123,-2.0132,-2.0145,-2.0145,-2.0191,-2.0191,0,0,-2.0016,-2.0004,-2.0034,-2.0041,-2.0033,-2.0047,-2.0051,-2.0103,-2.0106,-2.0121,-2.0125,-2.0133,-2.0145,-2.0146,-2.0191,-2.0191,0,0,0,-2.0006,-2.0001,-2.0019,-2.0038,-2.0049,-2.0049,-2.0053,-2.0103,-2.011,-2.0125,-2.0134,-2.0146,-2.0146,-2.0191,-2.0191,-2.0184,0,0,0,-2.0004,-1.9995,-2.0017,-2.001,-2.0048,-2.0077,-2.0052,-2.0107,-2.0113,-2.0133,-2.0146,-2.0147,-2.0191,-2.0191,-2.0184,-2.0182,0,0,0,-1.9993,-1.9994,-2.0001,-2.0009,-2.0034,-2.0077,-2.0086,-2.0108,-2.0118,-2.0145,-2.0147,-2.0191,-2.0191,-2.0184,-2.0182,-2.019,0,0,0,-1.9977,-1.9994,-2.0001,-2.0023,-2.0033,-2.0072,-2.0086,-2.0116,-2.0138,-2.0146,-2.0191,-2.0191,-2.0184,-2.0182,-2.019,-2.0194,-2.0194,0,0,-1.9992,-1.9996,-2.0009,-2.0017,-2.0051,-2.0064,-2.0096,-2.0129,-2.0143,-2.0174,-2.0175,-2.0184,-2.0182,-2.019,-2.0202,-2.0203,0,0,0,-2.0009,-2.0019,-2.0031,-2.0051,-2.0076,-2.0096,-2.0125,-2.0136,-2.0163,-2.0157,-2.0189,-2.0188,-2.0193,-2.0196,-2.0196,-2.0201,-2.0192,-2.0192,-2.0192,-2.0012,-2.0028,-2.0051,-2.0074,-2.0093,-2.0121,-2.0137,-2.0157,-2.0169,-2.0176,-2.0186,-2.0192,-2.0194,-2.0194,-2.0199,-2.0189,-2.0189,-2.0189,-2.0189,-2.0033,-2.0049,-2.0062,-2.0089,-2.0106,-2.0128,-2.0155,-2.0162,-2.0184,-2.0186,-2.0191,-2.0192,-2.0194,-2.0199,-2.0189,-2.0189,-2.0189,-2.0189,-2.0189,-2.0037,-2.0047,-2.006,-2.0089,-2.0109,-2.0131,-2.0152,-2.0166,-2.018,-2.0185,-2.0195,-2.0196,-2.0197,-2.0189,-2.0189,-2.0189,-2.0189,-2.0189,-2.0189,-2.0035,-2.005,-2.0066,-2.0091,-2.0105,-2.0124,-2.0151,-2.0164,-2.0183,-2.0191,-2.0191,-2.0201,-2.0192,-2.0188,-2.0189,-2.0189,-2.0189,-2.0189,-2.0189,-2.005,-2.0048,-2.0073,-2.0086,-2.0116,-2.0134,-2.0152,-2.0177,-2.019,-2.0199,-2.0208,-2.0198,-2.0203,-2.0203,-2.0201,-2.0205,-2.0205,-2.0205,-2.0205,-2.0052,-2.0056,-2.0083,-2.0103,-2.0124,-2.0142,-2.0167,-2.0186,-2.0206,-2.0215,-2.0216,-2.0214,-2.0214,-2.0219,-2.0219,-2.0217,-2.0224,-2.0225,-2.0225,-2.0062,-2.0068,-2.0087,-2.0107,-2.0131,-2.015,-2.0174,-2.0195,-2.0218,-2.0226,-2.0222,-2.0221,-2.0218,-2.0216,-2.0225,-2.0224,-2.022,0,0]}]]